Charlevoix, MI

1:34 PM EDT on August 25, 2016 (GMT -0400)
Charlevoix Municipal

Weather History for KCVX - October, 2013

Change the Weather History Date:

Friday, October 18, 2013

  Actual Average Record
Temperature  
Mean Temperature 46 °F -  
Max Temperature 54 °F 60 °F 73 °F (2007)
Min Temperature 39 °F 43 °F 33 °F (2001)
Degree Days  
Heating Degree Days 18    
Moisture  
Dew Point 44 °F    
Average Humidity 90    
Maximum Humidity 100    
Minimum Humidity 70    
Precipitation  
Precipitation 0.00 in - - ()
Sea Level Pressure  
Sea Level Pressure 29.79 in    
Wind  
Wind Speed 4 mph (SW)    
Max Wind Speed 12 mph    
Max Gust Speed -    
Visibility 9 miles    
Events Rain    
Averages and records for this station are not official NWS values.
T = Trace of Precipitation, MM = Missing Value Source: NWS Daily Summary

Daily Weather History Graph

Daily Weather History Graph

Search for Another Location

Airport or City:

Trip Planner

Search our weather history database for the weather conditions in past years. The results will help you decide how hot, cold, wet, or windy it might be!

Date:

Astronomy

Oct. 18, 2013 Rise Set
Actual Time 8:01 AM EDT 6:50 PM EDT
Civil Twilight 7:31 AM EDT 7:20 PM EDT
Nautical Twilight 6:57 AM EDT 7:54 PM EDT
Astronomical Twilight 6:23 AM EDT 8:28 PM EDT
Moon 6:38 PM EDT (10/18) 7:36 AM EDT (10/18)
Length of Visible Light 11h 48m
Length of Day
10h 48m
Full, 100% of the Moon is Illuminated
Oct 18
Full
Oct 18
Full
Oct 26
Last Quarter
Nov 3
New
Nov 10
First Quarter

Hourly Weather History & Observations

Time (EDT) Temp. Windchill Dew Point Humidity Pressure Visibility Wind Dir Wind Speed Gust Speed Precip Events Conditions
12:15 AM 44.6 °F 43.1 °F 37.0 °F 75% 29.77 in 10.0 mi SW 3.5 mph - N/A   Scattered Clouds
12:34 AM 42.1 °F 39.2 °F 37.2 °F 83% 29.77 in 10.0 mi WSW 4.6 mph - N/A   Clear
12:55 AM 42.8 °F 40.1 °F 36.9 °F 80% 29.77 in 10.0 mi WSW 4.6 mph - N/A   Clear
1:14 AM 43.3 °F 38.6 °F 36.9 °F 78% 29.77 in 10.0 mi West 8.1 mph - N/A   Scattered Clouds
1:34 AM 45.7 °F 41.5 °F 38.7 °F 76% 29.77 in 10.0 mi West 8.1 mph - N/A   Scattered Clouds
1:55 AM 46.8 °F - 38.8 °F 74% 29.77 in 10.0 mi West 8.1 mph - N/A   Scattered Clouds
2:14 AM 45.5 °F 43.2 °F 38.8 °F 78% 29.77 in 10.0 mi West 4.6 mph - N/A   Scattered Clouds
2:35 AM 44.8 °F - 38.5 °F 79% 29.77 in 10.0 mi Calm Calm - N/A   Scattered Clouds
2:54 AM 40.6 °F 38.6 °F 38.7 °F 93% 29.77 in 10.0 mi SW 3.5 mph - N/A   Clear
3:14 AM 40.3 °F 38.2 °F 37.9 °F 91% 29.77 in 10.0 mi SSW 3.5 mph - N/A   Scattered Clouds
3:35 AM 39.7 °F - 38.3 °F 95% 29.77 in 10.0 mi Calm Calm - N/A   Mostly Cloudy
3:54 AM 39.6 °F 37.4 °F 38.7 °F 97% 29.76 in 10.0 mi SSE 3.5 mph - N/A   Mostly Cloudy
4:14 AM 40.1 °F - 39.2 °F 97% 29.76 in 10.0 mi Calm Calm - N/A   Scattered Clouds
4:35 AM 40.6 °F - 39.2 °F 95% 29.76 in 10.0 mi Calm Calm - N/A   Scattered Clouds
4:54 AM 40.6 °F 37.5 °F 39.4 °F 95% 29.77 in 10.0 mi South 4.6 mph - N/A   Scattered Clouds
5:15 AM 42.8 °F 39.3 °F 41.5 °F 95% 29.76 in 10.0 mi South 5.8 mph - N/A   Clear
5:34 AM 43.9 °F 40.5 °F 42.8 °F 96% 29.76 in 10.0 mi South 5.8 mph - N/A   Clear
5:54 AM 44.8 °F 41.0 °F 43.3 °F 95% 29.76 in 10.0 mi SSW 6.9 mph - N/A   Scattered Clouds
6:15 AM 44.8 °F 42.4 °F 43.2 °F 94% 29.76 in 10.0 mi SSW 4.6 mph - N/A   Mostly Cloudy
6:34 AM 44.6 °F 42.2 °F 43.2 °F 95% 29.76 in 10.0 mi South 4.6 mph - N/A   Scattered Clouds
6:55 AM 45.1 °F 43.7 °F 43.5 °F 94% 29.76 in 10.0 mi South 3.5 mph - N/A   Scattered Clouds
7:15 AM 44.6 °F - 42.8 °F 93% 29.77 in 10.0 mi Calm Calm - N/A   Mostly Cloudy
7:34 AM 49.6 °F - 43.0 °F 78% 29.76 in 10.0 mi West 10.4 mph - N/A   Mostly Cloudy
7:55 AM 50.0 °F - 41.9 °F 74% 29.77 in 10.0 mi NE 3.5 mph - N/A   Overcast
8:15 AM 42.4 °F 39.6 °F 41.2 °F 95% 29.77 in 10.0 mi ESE 4.6 mph - N/A   Overcast
8:34 AM 41.9 °F 39.0 °F 41.2 °F 97% 29.78 in 10.0 mi ESE 4.6 mph - N/A   Mostly Cloudy
8:55 AM 42.6 °F 40.9 °F 41.9 °F 97% 29.79 in 10.0 mi ESE 3.5 mph - N/A   Mostly Cloudy
9:14 AM 43.2 °F 40.5 °F 42.8 °F 99% 29.79 in 10.0 mi ESE 4.6 mph - N/A   Overcast
9:35 AM 43.9 °F - 43.3 °F 98% 29.79 in 10.0 mi Calm Calm - N/A   Overcast
9:55 AM 45.0 °F - 44.8 °F 99% 29.79 in 2.5 mi Calm Calm - N/A Rain Rain
10:14 AM 45.5 °F 42.5 °F 45.1 °F 99% 29.79 in 1.8 mi East 5.8 mph - N/A Rain Light Rain
10:35 AM 45.0 °F 43.5 °F 45.0 °F 100% 29.80 in 0.5 mi ENE 3.5 mph - N/A Rain Light Rain
10:54 AM 46.2 °F - 46.0 °F 99% 29.80 in 10.0 mi Calm Calm - N/A   Mostly Cloudy
11:14 AM 47.5 °F - 47.1 °F 99% 29.80 in 10.0 mi SSE 4.6 mph - N/A   Mostly Cloudy
11:35 AM 47.7 °F - 47.1 °F 98% 29.80 in 10.0 mi SSE 3.5 mph - N/A   Overcast
11:54 AM 48.0 °F - 47.5 °F 98% 29.80 in 7.0 mi Calm Calm - N/A Rain Light Rain
12:14 PM 50.5 °F - 47.1 °F 88% 29.80 in 10.0 mi WNW 9.2 mph - N/A Rain Light Rain
12:34 PM 50.0 °F - 47.3 °F 90% 29.81 in 5.0 mi West 11.5 mph - N/A Rain Rain
12:54 PM 50.0 °F - 47.7 °F 92% 29.81 in 10.0 mi West 9.2 mph - N/A   Overcast
1:15 PM 51.3 °F - 46.2 °F 83% 29.80 in 10.0 mi WSW 5.8 mph - N/A   Overcast
1:34 PM 51.3 °F - 45.0 °F 79% 29.80 in 10.0 mi WSW 5.8 mph - N/A   Overcast
1:54 PM 52.5 °F - 46.0 °F 79% 29.80 in 10.0 mi WSW 3.5 mph - N/A   Overcast
2:15 PM 54.3 °F - 45.0 °F 71% 29.79 in 10.0 mi West 6.9 mph - N/A   Mostly Cloudy
2:34 PM 54.1 °F - 44.6 °F 70% 29.79 in 10.0 mi West 5.8 mph - N/A   Overcast
2:55 PM 54.1 °F - 44.4 °F 70% 29.79 in 10.0 mi WSW 5.8 mph - N/A   Overcast
3:15 PM 54.5 °F - 44.8 °F 70% 29.78 in 10.0 mi West 5.8 mph - N/A   Overcast
3:34 PM 53.6 °F - 44.6 °F 72% 29.78 in 10.0 mi NW 6.9 mph - N/A   Overcast
3:55 PM 53.4 °F - 45.5 °F 75% 29.78 in 10.0 mi NW 4.6 mph - N/A   Overcast
4:15 PM 52.3 °F - 45.3 °F 77% 29.78 in 10.0 mi NNW 3.5 mph - N/A   Overcast
4:34 PM 51.8 °F - 46.0 °F 81% 29.78 in 10.0 mi South 3.5 mph - N/A Rain Rain
4:55 PM 49.6 °F - 45.7 °F 86% 29.78 in 4.0 mi South 5.8 mph - N/A Rain Rain
5:15 PM 48.0 °F - 45.5 °F 91% 29.79 in 3.0 mi West 8.1 mph - N/A Rain Rain
5:34 PM 47.5 °F - 46.2 °F 95% 29.79 in 5.0 mi West 3.5 mph - N/A Rain Light Rain
5:55 PM 47.8 °F - 46.8 °F 96% 29.79 in 10.0 mi Calm Calm - N/A   Overcast
6:14 PM 47.7 °F - 47.1 °F 98% 29.80 in 10.0 mi West 4.6 mph - N/A   Overcast
6:34 PM 48.0 °F - 47.1 °F 97% 29.80 in 10.0 mi NW 5.8 mph - N/A Rain Rain
6:55 PM 47.3 °F - 45.5 °F 93% 29.81 in 4.0 mi NNW 4.6 mph - N/A Rain Light Rain
7:14 PM 47.5 °F - 46.6 °F 97% 29.80 in 10.0 mi NW 5.8 mph - N/A   Overcast
7:34 PM 47.5 °F - 46.2 °F 95% 29.81 in 10.0 mi Calm Calm - N/A   Overcast
7:55 PM 46.9 °F - 46.4 °F 98% 29.81 in 10.0 mi South 3.5 mph - N/A   Overcast
8:14 PM 46.6 °F - 46.4 °F 99% 29.81 in 7.0 mi SSE 4.6 mph - N/A   Overcast
8:35 PM 46.4 °F - 46.4 °F 100% 29.81 in 10.0 mi Calm Calm - N/A   Overcast
8:55 PM 46.8 °F - 46.8 °F 100% 29.82 in 7.0 mi Calm Calm - N/A Rain Rain
9:14 PM 46.6 °F - 46.6 °F 100% 29.82 in 10.0 mi Calm Calm - N/A   Overcast
9:35 PM 46.8 °F - 46.8 °F 100% 29.82 in 10.0 mi ESE 3.5 mph - N/A   Overcast
9:55 PM 46.8 °F - 46.8 °F 100% 29.82 in 10.0 mi Calm Calm - N/A Rain Rain
10:14 PM 47.3 °F - 47.3 °F 100% 29.82 in 10.0 mi NE 4.6 mph - N/A Rain Light Rain
10:35 PM 47.5 °F - 47.3 °F 99% 29.82 in 10.0 mi NNE 5.8 mph - N/A Rain Heavy Rain
10:55 PM 46.8 °F - 46.6 °F 99% 29.83 in 5.0 mi ENE 5.8 mph - N/A Rain Rain
11:14 PM 46.0 °F 41.0 °F 45.7 °F 99% 29.83 in 10.0 mi ENE 10.4 mph - N/A Rain Light Rain
11:35 PM 46.0 °F 43.1 °F 45.3 °F 97% 29.83 in 10.0 mi East 5.8 mph - N/A Rain Light Rain
11:54 PM 46.0 °F - 45.1 °F 97% 29.83 in 10.0 mi Calm Calm - N/A   Overcast